Simultaneous Nadir Overpasses (SNOs) Predictions

Prediction of SNOs between LANDSAT-8 and METOP-B Satellite Orbit:

Table of predicted SNOs for the next 14.0 days since TLE Epoch: 6/15/2018
Index Date (LANDSAT-8) Time (LANDSAT-8) Lat,Lon (LANDSAT-8) SZA (LANDSAT-8 ) Date (METOP-B) Time (METOP-B) Lat,Lon (METOP-B) SZA (METOP-B ) Distance(km) Time Diff (sec)
1 06/16/2018 22:44:55 81.22,-119.75 60.15 06/16/2018 22:44:12 81.22,-119.59 60.14 2.73 43
2 06/16/2018 23:34:22 -81.22, 47.83 119.87 06/16/2018 23:34:53 -81.22, 47.72 119.86 2.01 31
3 06/19/2018 18:19:12 81.22, -53.28 60.08 06/19/2018 18:18:32 81.22, -53.11 60.08 2.87 40
4 06/19/2018 19:08:39 -81.22, 114.33 119.93 06/19/2018 19:09:13 -81.22, 114.20 119.93 2.29 34
5 06/22/2018 13:53:28 81.22, 13.16 60.06 06/22/2018 13:52:51 81.22, 13.35 60.06 3.26 37
6 06/22/2018 14:42:55 -81.22,-179.20 119.95 06/22/2018 14:43:32 -81.22,-179.34 119.95 2.33 37
7 06/25/2018 09:27:45 81.22, 79.57 60.09 06/25/2018 09:27:12 81.21, 79.41 60.05 2.73 33
8 06/25/2018 10:17:12 -81.22,-112.77 119.91 06/25/2018 10:17:52 -81.23,-112.89 119.91 2.13 40
9 06/28/2018 05:02:02 81.22, 145.94 60.17 06/28/2018 05:01:32 81.22, 145.84 60.14 1.80 30




NCC Satellite Simultaneous Nadir Overpasses (SNOs) Prediction Service
